QPF
0.00 0.00 0.00 0.00 0.00 0.00 0.00 0.00 0.00 0.00 0.00 0.00 0.00 0.00 0.00 0.00 0.00 0.00 0.00 0.00 0.00 0.00 0.00 0.00 0.01 0.01 0.02 0.02 0.03 0.03 0.04 0.04 0.04 0.07 0.09 0.09 0.08 0.06 0.05 0.03 0.03 0.04 0.04 0.04 0.05 0.05 0.06 0.04 0.02
0.00 0.00 0.00 0.00 0.00 0.00 0.00 0.00 0.00 0.00 0.00 0.00 0.00 0.00 0.00 0.00 0.00 0.00 0.00 0.00 0.00 0.00 0.00 0.00 0.01 0.02 0.03 0.03 0.04 0.05 0.05 0.05 0.05 0.06 0.08 0.09 0.08 0.06 0.05 0.04 0.04 0.05 0.05 0.04 0.04 0.04 0.05 0.04 0.02
0.00 0.01 0.00 0.00 0.00 0.00 0.00 0.00 0.00 0.00 0.00 0.00 0.00 0.00 0.00 0.00 0.00 0.00 0.00 0.00 0.00 0.00 0.00 0.00 0.01 0.02 0.03 0.04 0.05 0.06 0.06 0.06 0.07 0.08 0.09 0.10 0.10 0.08 0.07 0.06 0.06 0.07 0.05 0.04 0.04 0.05 0.05 0.04 0.03
0.00 0.01 0.01 0.00 0.00 0.00 0.00 0.00 0.00 0.00 0.00 0.00 0.00 0.00 0.00 0.00 0.00 0.00 0.00 0.00 0.00 0.00 0.00 0.00 0.01 0.03 0.04 0.05 0.05 0.06 0.07 0.07 0.07 0.09 0.11 0.11 0.12 0.12 0.10 0.08 0.08 0.07 0.06 0.05 0.05 0.06 0.05 0.04 0.04
0.00 0.01 0.01 0.00 0.00 0.00 0.00 0.00 0.00 0.00 0.00 0.00 0.00 0.00 0.00 0.00 0.00 0.00 0.00 0.00 0.00 0.00 0.00 0.00 0.01 0.02 0.04 0.05 0.06 0.06 0.07 0.07 0.08 0.10 0.12 0.14 0.14 0.15 0.14 0.12 0.10 0.07 0.06 0.05 0.05 0.05 0.05 0.05 0.05
0.00 0.01 0.00 0.00 0.00 0.00 0.00 0.00 0.00 0.00 0.00 0.00 0.00 0.00 0.00 0.00 0.00 0.00 0.00 0.00 0.00 0.00 0.01 0.01 0.01 0.02 0.04 0.05 0.06 0.06 0.07 0.07 0.09 0.12 0.13 0.14 0.13 0.14 0.15 0.15 0.12 0.10 0.08 0.07 0.07 0.06 0.07 0.06 0.06
0.00 0.00 0.00 0.00 0.00 0.00 0.00 0.00 0.00 0.00 0.00 0.00 0.00 0.00 0.00 0.00 0.00 0.00 0.00 0.00 0.00 0.00 0.01 0.01 0.02 0.02 0.03 0.04 0.05 0.07 0.07 0.07 0.08 0.11 0.13 0.15 0.16 0.16 0.17 0.18 0.17 0.13 0.11 0.11 0.10 0.08 0.07 0.07 0.06
0.00 0.00 0.00 0.00 0.00 0.00 0.00 0.00 0.00 0.00 0.00 0.00 0.00 0.00 0.00 0.00 0.00 0.00 0.00 0.00 0.00 0.01 0.01 0.01 0.01 0.02 0.03 0.04 0.05 0.06 0.07 0.08 0.08 0.09 0.11 0.13 0.15 0.18 0.20 0.19 0.17 0.15 0.13 0.11 0.09 0.07 0.06 0.05 0.05
0.00 0.00 0.00 0.00 0.00 0.00 0.00 0.00 0.00 0.00 0.00 0.00 0.00 0.00 0.00 0.00 0.00 0.00 0.00 0.01 0.01 0.01 0.01 0.02 0.02 0.03 0.03 0.03 0.04 0.05 0.06 0.07 0.09 0.09 0.10 0.11 0.12 0.14 0.15 0.15 0.14 0.17 0.17 0.15 0.11 0.08 0.06 0.05 0.05
0.00 0.00 0.00 0.00 0.00 0.00 0.00 0.00 0.00 0.00 0.00 0.00 0.00 0.00 0.00 0.00 0.00 0.00 0.00 0.00 0.01 0.01 0.01 0.02 0.02 0.03 0.03 0.02 0.03 0.04 0.05 0.06 0.08 0.09 0.10 0.10 0.09 0.10 0.10 0.10 0.11 0.14 0.19 0.18 0.14 0.10 0.08 0.06 0.05
0.00 0.00 0.00 0.00 0.00 0.00 0.00 0.00 0.00 0.00 0.00 0.00 0.00 0.00 0.00 0.00 0.00 0.00 0.01 0.01 0.01 0.02 0.02 0.03 0.03 0.03 0.03 0.02 0.02 0.02 0.04 0.06 0.08 0.10 0.11 0.12 0.12 0.11 0.11 0.11 0.11 0.13 0.15 0.16 0.14 0.12 0.09 0.06 0.04
0.00 0.00 0.00 0.00 0.00 0.00 0.00 0.00 0.00 0.00 0.00 0.00 0.00 0.00 0.00 0.00 0.00 0.00 0.01 0.01 0.02 0.03 0.03 0.03 0.04 0.04 0.03 0.03 0.03 0.03 0.02 0.04 0.06 0.09 0.10 0.13 0.16 0.14 0.12 0.10 0.09 0.11 0.14 0.16 0.14 0.11 0.07 0.05 0.04
0.00 0.00 0.00 0.00 0.00 0.00 0.00 0.00 0.00 0.00 0.00 0.00 0.00 0.00 0.00 0.00 0.00 0.00 0.01 0.01 0.02 0.03 0.03 0.03 0.04 0.04 0.03 0.04 0.03 0.03 0.03 0.03 0.04 0.06 0.09 0.10 0.13 0.16 0.17 0.13 0.09 0.09 0.12 0.15 0.16 0.13 0.08 0.06 0.05
0.00 0.00 0.00 0.00 0.00 0.00 0.00 0.00 0.00 0.00 0.00 0.00 0.00 0.00 0.00 0.00 0.00 0.00 0.01 0.01 0.02 0.02 0.02 0.03 0.05 0.04 0.03 0.03 0.04 0.04 0.03 0.03 0.04 0.06 0.06 0.09 0.11 0.12 0.14 0.16 0.14 0.11 0.11 0.13 0.14 0.13 0.11 0.09 0.06
0.00 0.00 0.00 0.00 0.00 0.00 0.00 0.00 0.00 0.00 0.00 0.00 0.00 0.00 0.00 0.00 0.00 0.00 0.01 0.01 0.01 0.02 0.02 0.03 0.05 0.05 0.04 0.04 0.04 0.05 0.04 0.03 0.04 0.06 0.06 0.06 0.08 0.10 0.12 0.14 0.15 0.13 0.12 0.12 0.12 0.13 0.13 0.12 0.09
0.00 0.00 0.00 0.00 0.00 0.00 0.00 0.00 0.00 0.00 0.00 0.00 0.00 0.00 0.00 0.00 0.00 0.00 0.01 0.01 0.01 0.01 0.02 0.02 0.04 0.05 0.05 0.05 0.04 0.04 0.05 0.05 0.05 0.05 0.06 0.06 0.06 0.08 0.10 0.13 0.14 0.13 0.12 0.12 0.11 0.10 0.11 0.11 0.10
0.00 0.00 0.00 0.00 0.00 0.00 0.00 0.00 0.00 0.00 0.00 0.00 0.00 0.00 0.00 0.00 0.00 0.00 0.01 0.01 0.01 0.01 0.01 0.01 0.02 0.03 0.05 0.06 0.05 0.05 0.05 0.05 0.06 0.07 0.06 0.06 0.06 0.06 0.08 0.10 0.12 0.14 0.14 0.12 0.12 0.10 0.09 0.09 0.10
0.00 0.00 0.00 0.00 0.01 0.01 0.00 0.00 0.00 0.00 0.00 0.00 0.00 0.00 0.00 0.00 0.00 0.00 0.01 0.01 0.01 0.01 0.01 0.02 0.02 0.03 0.04 0.05 0.06 0.07 0.06 0.06 0.04 0.06 0.07 0.07 0.07 0.07 0.07 0.09 0.12 0.14 0.15 0.14 0.14 0.12 0.11 0.11 0.12
0.00 0.01 0.01 0.01 0.01 0.01 0.01 0.00 0.00 0.00 0.00 0.00 0.00 0.00 0.00 0.00 0.00 0.01 0.01 0.02 0.02 0.02 0.02 0.02 0.02 0.02 0.03 0.04 0.05 0.09 0.09 0.07 0.05 0.04 0.05 0.06 0.07 0.07 0.06 0.06 0.08 0.12 0.14 0.13 0.14 0.14 0.13 0.13 0.14
0.00 0.01 0.02 0.02 0.01 0.01 0.01 0.00 0.00 0.00 0.00 0.00 0.00 0.00 0.01 0.01 0.01 0.01 0.01 0.02 0.02 0.02 0.02 0.02 0.02 0.02 0.02 0.03 0.04 0.07 0.10 0.09 0.06 0.04 0.04 0.05 0.06 0.06 0.06 0.06 0.07 0.11 0.13 0.12 0.13 0.15 0.15 0.13 0.13
0.01 0.01 0.02 0.02 0.02 0.02 0.02 0.01 0.01 0.00 0.01 0.01 0.00 0.01 0.01 0.01 0.01 0.01 0.01 0.01 0.02 0.02 0.02 0.01 0.02 0.03 0.03 0.03 0.04 0.04 0.08 0.11 0.08 0.06 0.05 0.04 0.05 0.06 0.05 0.05 0.07 0.10 0.13 0.13 0.12 0.14 0.15 0.14 0.13
0.00 0.00 0.01 0.01 0.02 0.02 0.01 0.01 0.02 0.02 0.01 0.01 0.01 0.01 0.01 0.01 0.01 0.02 0.02 0.02 0.03 0.02 0.01 0.02 0.03 0.04 0.03 0.03 0.04 0.05 0.05 0.08 0.08 0.06 0.05 0.04 0.04 0.06 0.06 0.05 0.07 0.09 0.11 0.12 0.12 0.13 0.14 0.15 0.16
0.00 0.00 0.00 0.00 0.01 0.01 0.01 0.01 0.02 0.02 0.02 0.02 0.02 0.02 0.02 0.02 0.02 0.02 0.02 0.03 0.03 0.03 0.02 0.02 0.03 0.05 0.04 0.04 0.04 0.05 0.06 0.06 0.07 0.07 0.05 0.05 0.05 0.05 0.06 0.06 0.07 0.10 0.12 0.11 0.11 0.13 0.14 0.15 0.15
0.00 0.00 0.00 0.00 0.00 0.00 0.00 0.01 0.01 0.02 0.03 0.02 0.02 0.01 0.01 0.02 0.02 0.02 0.02 0.01 0.02 0.03 0.02 0.02 0.03 0.05 0.05 0.04 0.04 0.05 0.06 0.05 0.05 0.05 0.05 0.05 0.05 0.05 0.05 0.06 0.07 0.10 0.11 0.11 0.11 0.12 0.13 0.14 0.13
0.00 0.00 0.00 0.00 0.00 0.00 0.00 0.00 0.01 0.01 0.01 0.01 0.01 0.00 0.01 0.01 0.02 0.02 0.02 0.02 0.01 0.03 0.02 0.02 0.03 0.04 0.05 0.05 0.05 0.05 0.06 0.06 0.05 0.04 0.04 0.04 0.04 0.04 0.05 0.06 0.07 0.09 0.10 0.10 0.12 0.14 0.14 0.14 0.13
0.00 0.00 0.00 0.00 0.00 0.00 0.00 0.00 0.00 0.00 0.00 0.00 0.00 0.00 0.00 0.00 0.01 0.02 0.03 0.03 0.02 0.01 0.02 0.02 0.02 0.02 0.04 0.05 0.05 0.05 0.05 0.06 0.06 0.04 0.04 0.04 0.04 0.04 0.05 0.06 0.08 0.09 0.09 0.09 0.10 0.14 0.16 0.15 0.15
0.00 0.00 0.00 0.01 0.00 0.00 0.00 0.00 0.00 0.00 0.00 0.00 0.00 0.00 0.01 0.00 0.00 0.02 0.03 0.03 0.02 0.01 0.02 0.02 0.02 0.02 0.02 0.05 0.05 0.05 0.05 0.05 0.06 0.06 0.06 0.05 0.05 0.06 0.06 0.07 0.11 0.11 0.11 0.10 0.10 0.11 0.14 0.17 0.16
0.00 0.00 0.00 0.01 0.01 0.00 0.00 0.00 0.00 0.00 0.00 0.00 0.00 0.00 0.01 0.00 0.00 0.01 0.03 0.03 0.02 0.01 0.02 0.02 0.01 0.01 0.02 0.03 0.05 0.05 0.04 0.04 0.05 0.06 0.07 0.08 0.07 0.08 0.08 0.08 0.11 0.13 0.13 0.12 0.11 0.11 0.12 0.15 0.17
0.00 0.00 0.00 0.01 0.01 0.01 0.00 0.00 0.00 0.00 0.00 0.00 0.00 0.00 0.00 0.00 0.00 0.01 0.04 0.05 0.04 0.02 0.01 0.02 0.01 0.02 0.02 0.02 0.03 0.04 0.04 0.04 0.05 0.06 0.07 0.09 0.09 0.10 0.10 0.11 0.11 0.12 0.13 0.12 0.13 0.13 0.12 0.13 0.15
0.00 0.00 0.01 0.01 0.01 0.01 0.01 0.00 0.00 0.00 0.00 0.00 0.00 0.00 0.00 0.00 0.00 0.02 0.04 0.05 0.05 0.03 0.02 0.01 0.01 0.01 0.02 0.02 0.03 0.02 0.03 0.04 0.04 0.05 0.06 0.08 0.09 0.10 0.11 0.13 0.14 0.12 0.12 0.13 0.13 0.13 0.13 0.13 0.13
MSLP
1011.14 1011.17 1011.29 1011.46 1011.65 1011.80 1011.88 1011.85 1011.72 1011.53 1011.34 1011.21 1011.20 1011.33 1011.58 1011.93 1012.28 1012.58 1012.76 1012.78 1012.65 1012.41 1012.13 1011.85 1011.64 1011.52 1011.46 1011.44 1011.41 1011.34 1011.18 1010.95 1010.68 1010.39 1010.14 1009.95 1009.82 1009.73 1009.67 1009.59 1009.47 1009.31 1009.13 1008.97 1008.86 1008.86 1008.97 1009.19 1009.48
1011.09 1011.14 1011.27 1011.47 1011.67 1011.85 1011.94 1011.93 1011.83 1011.66 1011.49 1011.37 1011.35 1011.47 1011.70 1012.02 1012.35 1012.63 1012.80 1012.83 1012.73 1012.54 1012.30 1012.08 1011.91 1011.82 1011.79 1011.78 1011.75 1011.67 1011.50 1011.26 1010.97 1010.67 1010.40 1010.17 1010.00 1009.86 1009.73 1009.58 1009.39 1009.16 1008.91 1008.70 1008.55 1008.52 1008.62 1008.85 1009.16
1011.05 1011.11 1011.26 1011.47 1011.69 1011.88 1011.99 1012.00 1011.92 1011.78 1011.63 1011.53 1011.52 1011.62 1011.84 1012.12 1012.42 1012.68 1012.83 1012.87 1012.80 1012.64 1012.45 1012.28 1012.16 1012.10 1012.09 1012.09 1012.07 1011.98 1011.81 1011.57 1011.28 1010.98 1010.69 1010.44 1010.23 1010.04 1009.85 1009.62 1009.34 1009.03 1008.72 1008.45 1008.26 1008.20 1008.29 1008.52 1008.84
1011.05 1011.13 1011.29 1011.50 1011.73 1011.92 1012.04 1012.07 1012.01 1011.89 1011.77 1011.68 1011.67 1011.77 1011.96 1012.21 1012.48 1012.71 1012.86 1012.90 1012.86 1012.74 1012.61 1012.48 1012.41 1012.38 1012.38 1012.39 1012.36 1012.27 1012.10 1011.86 1011.58 1011.28 1010.99 1010.73 1010.50 1010.26 1010.01 1009.71 1009.36 1008.97 1008.59 1008.25 1008.02 1007.93 1008.00 1008.22 1008.55
1011.09 1011.20 1011.37 1011.59 1011.81 1012.00 1012.11 1012.15 1012.10 1012.00 1011.89 1011.81 1011.81 1011.89 1012.05 1012.28 1012.52 1012.72 1012.86 1012.92 1012.91 1012.84 1012.76 1012.69 1012.65 1012.65 1012.67 1012.67 1012.63 1012.53 1012.35 1012.12 1011.84 1011.55 1011.28 1011.02 1010.76 1010.50 1010.19 1009.84 1009.42 1008.97 1008.52 1008.13 1007.85 1007.72 1007.75 1007.96 1008.28
1011.20 1011.33 1011.53 1011.75 1011.97 1012.14 1012.24 1012.27 1012.22 1012.12 1012.01 1011.94 1011.92 1011.99 1012.13 1012.32 1012.53 1012.72 1012.86 1012.94 1012.96 1012.94 1012.92 1012.89 1012.90 1012.92 1012.93 1012.93 1012.87 1012.75 1012.56 1012.32 1012.05 1011.77 1011.51 1011.25 1010.99 1010.71 1010.38 1009.98 1009.51 1009.01 1008.50 1008.06 1007.73 1007.56 1007.56 1007.73 1008.02
1011.38 1011.55 1011.77 1011.99 1012.20 1012.36 1012.44 1012.44 1012.38 1012.27 1012.16 1012.07 1012.04 1012.09 1012.20 1012.35 1012.53 1012.70 1012.84 1012.94 1013.00 1013.03 1013.06 1013.09 1013.12 1013.16 1013.18 1013.15 1013.07 1012.92 1012.71 1012.46 1012.19 1011.92 1011.66 1011.41 1011.16 1010.87 1010.52 1010.09 1009.59 1009.05 1008.51 1008.02 1007.65 1007.43 1007.38 1007.50 1007.76
1011.62 1011.83 1012.07 1012.30 1012.50 1012.64 1012.70 1012.68 1012.59 1012.46 1012.33 1012.23 1012.18 1012.19 1012.26 1012.39 1012.53 1012.68 1012.81 1012.92 1013.01 1013.09 1013.16 1013.24 1013.31 1013.36 1013.37 1013.33 1013.22 1013.04 1012.81 1012.54 1012.26 1011.99 1011.74 1011.50 1011.25 1010.96 1010.60 1010.15 1009.64 1009.07 1008.50 1007.98 1007.57 1007.30 1007.21 1007.27 1007.47
1011.91 1012.15 1012.41 1012.64 1012.83 1012.95 1012.99 1012.94 1012.83 1012.68 1012.53 1012.40 1012.33 1012.30 1012.34 1012.42 1012.53 1012.65 1012.77 1012.88 1012.99 1013.11 1013.22 1013.33 1013.43 1013.50 1013.51 1013.45 1013.32 1013.12 1012.87 1012.58 1012.29 1012.02 1011.77 1011.53 1011.28 1010.98 1010.61 1010.16 1009.64 1009.06 1008.47 1007.93 1007.48 1007.17 1007.02 1007.03 1007.16
1012.21 1012.47 1012.74 1012.98 1013.16 1013.26 1013.26 1013.19 1013.06 1012.89 1012.72 1012.57 1012.46 1012.41 1012.41 1012.44 1012.51 1012.60 1012.70 1012.81 1012.93 1013.06 1013.21 1013.35 1013.47 1013.56 1013.58 1013.52 1013.38 1013.16 1012.89 1012.60 1012.30 1012.02 1011.77 1011.52 1011.27 1010.96 1010.59 1010.14 1009.60 1009.02 1008.42 1007.87 1007.40 1007.05 1006.85 1006.79 1006.85
1012.50 1012.77 1013.04 1013.26 1013.42 1013.49 1013.47 1013.38 1013.22 1013.03 1012.84 1012.68 1012.55 1012.47 1012.43 1012.43 1012.46 1012.52 1012.59 1012.68 1012.80 1012.95 1013.11 1013.28 1013.43 1013.54 1013.58 1013.53 1013.40 1013.18 1012.92 1012.62 1012.33 1012.05 1011.79 1011.54 1011.27 1010.96 1010.58 1010.12 1009.58 1008.99 1008.39 1007.82 1007.33 1006.95 1006.70 1006.58 1006.56
1012.74 1013.01 1013.26 1013.46 1013.58 1013.62 1013.56 1013.43 1013.25 1013.05 1012.84 1012.67 1012.53 1012.44 1012.38 1012.36 1012.36 1012.38 1012.43 1012.50 1012.62 1012.77 1012.95 1013.14 1013.31 1013.45 1013.51 1013.50 1013.39 1013.20 1012.95 1012.67 1012.38 1012.11 1011.85 1011.60 1011.32 1011.00 1010.61 1010.15 1009.61 1009.02 1008.41 1007.84 1007.33 1006.91 1006.61 1006.43 1006.34
1012.93 1013.17 1013.39 1013.55 1013.62 1013.61 1013.51 1013.34 1013.13 1012.90 1012.69 1012.51 1012.37 1012.28 1012.22 1012.18 1012.17 1012.18 1012.21 1012.27 1012.38 1012.53 1012.72 1012.93 1013.13 1013.30 1013.41 1013.43 1013.37 1013.22 1013.00 1012.75 1012.49 1012.23 1011.98 1011.72 1011.44 1011.12 1010.73 1010.26 1009.71 1009.12 1008.52 1007.93 1007.40 1006.95 1006.60 1006.35 1006.19
1013.08 1013.28 1013.45 1013.55 1013.56 1013.48 1013.32 1013.09 1012.83 1012.58 1012.36 1012.18 1012.05 1011.97 1011.93 1011.91 1011.90 1011.90 1011.93 1011.99 1012.09 1012.25 1012.45 1012.68 1012.91 1013.12 1013.28 1013.35 1013.33 1013.24 1013.07 1012.86 1012.63 1012.39 1012.15 1011.91 1011.63 1011.31 1010.92 1010.45 1009.91 1009.32 1008.70 1008.10 1007.55 1007.06 1006.65 1006.34 1006.10
1013.19 1013.35 1013.47 1013.51 1013.44 1013.28 1013.03 1012.74 1012.42 1012.13 1011.89 1011.71 1011.60 1011.55 1011.54 1011.54 1011.56 1011.58 1011.61 1011.68 1011.79 1011.95 1012.16 1012.41 1012.68 1012.93 1013.13 1013.25 1013.29 1013.25 1013.13 1012.96 1012.76 1012.55 1012.33 1012.10 1011.84 1011.53 1011.15 1010.69 1010.16 1009.57 1008.96 1008.34 1007.76 1007.23 1006.76 1006.37 1006.06
1013.30 1013.43 1013.50 1013.46 1013.32 1013.06 1012.72 1012.34 1011.95 1011.61 1011.34 1011.17 1011.08 1011.06 1011.09 1011.14 1011.19 1011.24 1011.30 1011.37 1011.49 1011.66 1011.88 1012.15 1012.45 1012.73 1012.97 1013.14 1013.23 1013.23 1013.15 1013.02 1012.85 1012.67 1012.47 1012.26 1012.02 1011.73 1011.37 1010.94 1010.42 1009.85 1009.24 1008.61 1007.99 1007.42 1006.89 1006.43 1006.04
1013.44 1013.55 1013.57 1013.47 1013.24 1012.89 1012.45 1011.97 1011.50 1011.10 1010.80 1010.62 1010.55 1010.57 1010.64 1010.74 1010.84 1010.93 1011.01 1011.10 1011.23 1011.40 1011.64 1011.92 1012.23 1012.53 1012.80 1013.01 1013.13 1013.16 1013.11 1013.00 1012.85 1012.69 1012.51 1012.32 1012.11 1011.85 1011.53 1011.13 1010.65 1010.10 1009.50 1008.86 1008.22 1007.60 1007.02 1006.49 1006.02
1013.62 1013.73 1013.71 1013.56 1013.25 1012.80 1012.26 1011.68 1011.13 1010.66 1010.33 1010.14 1010.08 1010.14 1010.26 1010.41 1010.56 1010.68 1010.79 1010.90 1011.03 1011.20 1011.43 1011.71 1012.02 1012.34 1012.63 1012.85 1012.98 1013.03 1012.99 1012.89 1012.74 1012.58 1012.42 1012.25 1012.06 1011.85 1011.57 1011.22 1010.79 1010.28 1009.70 1009.07 1008.41 1007.75 1007.12 1006.52 1005.98
1013.87 1013.97 1013.93 1013.73 1013.35 1012.82 1012.18 1011.50 1010.87 1010.34 1009.97 1009.77 1009.73 1009.82 1009.99 1010.18 1010.37 1010.53 1010.65 1010.76 1010.88 1011.04 1011.26 1011.53 1011.83 1012.15 1012.43 1012.65 1012.79 1012.83 1012.78 1012.67 1012.52 1012.35 1012.19 1012.04 1011.89 1011.71 1011.49 1011.20 1010.83 1010.37 1009.82 1009.21 1008.55 1007.88 1007.20 1006.55 1005.94
1014.15 1014.26 1014.21 1013.97 1013.53 1012.92 1012.19 1011.43 1010.72 1010.13 1009.73 1009.52 1009.50 1009.62 1009.83 1010.07 1010.29 1010.47 1010.59 1010.70 1010.80 1010.93 1011.12 1011.36 1011.64 1011.94 1012.21 1012.42 1012.54 1012.56 1012.50 1012.37 1012.19 1012.02 1011.85 1011.71 1011.58 1011.45 1011.29 1011.07 1010.76 1010.36 1009.87 1009.29 1008.65 1007.96 1007.26 1006.56 1005.90
1014.45 1014.56 1014.50 1014.23 1013.74 1013.06 1012.26 1011.43 1010.65 1010.02 1009.59 1009.38 1009.37 1009.52 1009.77 1010.04 1010.28 1010.47 1010.59 1010.67 1010.74 1010.83 1010.97 1011.17 1011.42 1011.69 1011.94 1012.13 1012.23 1012.24 1012.15 1011.99 1011.79 1011.60 1011.43 1011.29 1011.19 1011.10 1011.00 1010.84 1010.61 1010.28 1009.85 1009.32 1008.70 1008.02 1007.31 1006.58 1005.87
1014.73 1014.85 1014.78 1014.48 1013.94 1013.20 1012.34 1011.44 1010.61 1009.95 1009.50 1009.29 1009.30 1009.48 1009.75 1010.05 1010.30 1010.48 1010.59 1010.63 1010.66 1010.70 1010.79 1010.94 1011.15 1011.38 1011.60 1011.77 1011.85 1011.84 1011.73 1011.56 1011.34 1011.13 1010.96 1010.83 1010.75 1010.70 1010.65 1010.56 1010.40 1010.14 1009.77 1009.29 1008.70 1008.04 1007.32 1006.58 1005.83
1014.97 1015.09 1015.00 1014.67 1014.09 1013.31 1012.39 1011.44 1010.57 1009.87 1009.42 1009.21 1009.24 1009.43 1009.73 1010.03 1010.29 1010.46 1010.54 1010.54 1010.51 1010.49 1010.52 1010.62 1010.78 1010.97 1011.17 1011.32 1011.39 1011.36 1011.25 1011.07 1010.85 1010.64 1010.47 1010.35 1010.29 1010.27 1010.27 1010.23 1010.13 1009.93 1009.62 1009.19 1008.64 1008.00 1007.29 1006.54 1005.77
1015.16 1015.27 1015.17 1014.81 1014.19 1013.36 1012.40 1011.41 1010.50 1009.78 1009.31 1009.11 1009.14 1009.34 1009.64 1009.95 1010.20 1010.35 1010.39 1010.35 1010.26 1010.18 1010.15 1010.18 1010.29 1010.44 1010.61 1010.74 1010.81 1010.79 1010.68 1010.51 1010.31 1010.11 1009.96 1009.86 1009.82 1009.84 1009.86 1009.87 1009.81 1009.66 1009.39 1009.00 1008.49 1007.87 1007.17 1006.41 1005.62
1015.30 1015.41 1015.29 1014.90 1014.25 1013.38 1012.38 1011.35 1010.42 1009.68 1009.19 1008.97 1008.99 1009.19 1009.48 1009.78 1010.01 1010.12 1010.12 1010.03 1009.88 1009.73 1009.63 1009.61 1009.66 1009.77 1009.91 1010.03 1010.10 1010.09 1010.01 1009.88 1009.71 1009.54 1009.42 1009.35 1009.34 1009.38 1009.43 1009.46 1009.43 1009.31 1009.07 1008.71 1008.22 1007.62 1006.93 1006.17 1005.37
1015.41 1015.51 1015.38 1014.97 1014.29 1013.39 1012.35 1011.30 1010.34 1009.57 1009.06 1008.81 1008.81 1008.98 1009.24 1009.50 1009.69 1009.77 1009.72 1009.57 1009.36 1009.15 1008.98 1008.89 1008.89 1008.95 1009.06 1009.17 1009.25 1009.28 1009.24 1009.15 1009.03 1008.92 1008.84 1008.81 1008.83 1008.89 1008.96 1009.00 1008.98 1008.87 1008.64 1008.29 1007.82 1007.24 1006.55 1005.80 1005.00
1015.49 1015.60 1015.45 1015.02 1014.32 1013.40 1012.34 1011.27 1010.28 1009.49 1008.94 1008.65 1008.60 1008.72 1008.93 1009.14 1009.28 1009.30 1009.20 1008.99 1008.73 1008.45 1008.22 1008.07 1008.01 1008.03 1008.11 1008.21 1008.30 1008.35 1008.37 1008.34 1008.29 1008.25 1008.23 1008.24 1008.29 1008.37 1008.44 1008.48 1008.45 1008.33 1008.11 1007.76 1007.29 1006.72 1006.05 1005.31 1004.52
1015.56 1015.65 1015.49 1015.05 1014.33 1013.40 1012.34 1011.25 1010.25 1009.43 1008.85 1008.52 1008.40 1008.46 1008.59 1008.73 1008.80 1008.76 1008.60 1008.34 1008.02 1007.69 1007.40 1007.18 1007.07 1007.04 1007.09 1007.18 1007.29 1007.38 1007.45 1007.49 1007.52 1007.55 1007.59 1007.66 1007.74 1007.82 1007.89 1007.91 1007.87 1007.73 1007.49 1007.14 1006.68 1006.12 1005.47 1004.75 1003.98
1015.58 1015.65 1015.47 1015.01 1014.29 1013.36 1012.30 1011.23 1010.23 1009.39 1008.78 1008.39 1008.21 1008.19 1008.24 1008.30 1008.29 1008.19 1007.97 1007.65 1007.28 1006.91 1006.57 1006.30 1006.14 1006.08 1006.10 1006.19 1006.30 1006.43 1006.56 1006.67 1006.77 1006.87 1006.98 1007.08 1007.18 1007.27 1007.33 1007.33 1007.25 1007.09 1006.83 1006.47 1006.02 1005.48 1004.86 1004.17 1003.44
1015.52 1015.55 1015.32 1014.84 1014.11 1013.20 1012.17 1011.12 1010.14 1009.32 1008.69 1008.26 1008.03 1007.93 1007.90 1007.87 1007.79 1007.62 1007.35 1006.99 1006.58 1006.17 1005.80 1005.50 1005.31 1005.21 1005.22 1005.30 1005.43 1005.59 1005.76 1005.94 1006.11 1006.27 1006.42 1006.56 1006.67 1006.75 1006.79 1006.75 1006.64 1006.46 1006.18 1005.82 1005.38 1004.87 1004.29 1003.65 1002.96
Thickness
5715 5718 5722 5722 5716 5715 5720 5724 5726 5723 5726 5731 5733 5735 5737 5737 5735 5729 5733 5739 5742 5746 5749 5749 5749 5751 5752 5753 5754 5754 5755 5755 5755 5755 5755 5755 5754 5754 5754 5753 5753 5752 5751 5751 5750 5748 5746 5745 5743
5713 5716 5717 5714 5710 5713 5717 5720 5718 5720 5723 5725 5728 5730 5731 5730 5732 5731 5731 5733 5738 5741 5744 5744 5744 5745 5747 5748 5749 5750 5750 5751 5751 5751 5751 5751 5751 5750 5750 5749 5749 5749 5748 5747 5746 5745 5743 5741 5739
5709 5712 5710 5707 5707 5716 5716 5713 5715 5715 5717 5719 5721 5724 5724 5723 5725 5725 5725 5729 5733 5736 5738 5738 5738 5740 5741 5743 5744 5745 5745 5746 5746 5747 5747 5747 5746 5746 5746 5745 5745 5745 5744 5743 5742 5740 5739 5737 5736
5706 5704 5702 5701 5703 5707 5709 5708 5706 5708 5711 5713 5714 5715 5717 5718 5718 5719 5721 5725 5728 5730 5732 5733 5732 5734 5735 5737 5738 5739 5740 5741 5741 5742 5742 5742 5742 5741 5741 5741 5741 5740 5740 5739 5737 5736 5735 5733 5731
5700 5698 5693 5694 5697 5700 5701 5699 5699 5702 5704 5705 5706 5707 5709 5712 5713 5715 5717 5719 5721 5724 5725 5726 5725 5727 5729 5730 5731 5733 5734 5735 5736 5736 5737 5737 5737 5737 5736 5736 5736 5736 5735 5734 5733 5732 5730 5729 5727
5691 5691 5690 5694 5694 5692 5693 5692 5693 5694 5697 5698 5698 5700 5704 5706 5707 5708 5711 5713 5715 5716 5718 5719 5719 5721 5722 5724 5725 5726 5727 5729 5730 5730 5731 5732 5732 5732 5732 5731 5731 5731 5730 5729 5728 5727 5725 5724 5723
5684 5683 5687 5688 5685 5684 5684 5684 5686 5686 5688 5690 5691 5692 5698 5700 5700 5701 5704 5706 5708 5709 5711 5712 5714 5715 5716 5717 5718 5720 5721 5722 5723 5724 5725 5725 5726 5726 5727 5727 5726 5726 5725 5724 5723 5722 5721 5720 5718
5680 5678 5676 5677 5677 5677 5675 5675 5676 5677 5680 5683 5683 5685 5689 5691 5692 5694 5697 5699 5700 5701 5703 5705 5706 5708 5709 5711 5712 5712 5714 5715 5716 5718 5719 5719 5720 5721 5721 5720 5720 5720 5720 5719 5718 5717 5716 5715 5713
5670 5669 5672 5672 5670 5670 5666 5667 5669 5670 5672 5674 5677 5680 5681 5682 5683 5685 5687 5690 5692 5693 5695 5696 5698 5699 5700 5702 5704 5705 5707 5708 5709 5711 5712 5713 5714 5715 5716 5716 5715 5715 5714 5713 5713 5712 5711 5709 5708
5663 5664 5666 5662 5663 5661 5658 5657 5659 5662 5664 5667 5669 5671 5672 5673 5674 5676 5678 5680 5682 5684 5685 5687 5688 5690 5691 5694 5696 5698 5699 5701 5702 5704 5705 5706 5708 5709 5710 5710 5710 5710 5710 5708 5707 5706 5705 5704 5704
5655 5656 5653 5650 5650 5649 5648 5649 5651 5651 5657 5661 5662 5663 5664 5664 5666 5667 5670 5672 5673 5674 5675 5677 5678 5680 5681 5684 5686 5688 5690 5691 5694 5695 5696 5698 5699 5701 5702 5702 5703 5704 5704 5704 5703 5701 5700 5700 5701
5646 5644 5643 5643 5638 5638 5640 5642 5643 5645 5652 5656 5654 5654 5654 5656 5658 5659 5660 5661 5662 5663 5665 5666 5668 5670 5671 5673 5676 5678 5680 5681 5683 5685 5687 5689 5691 5692 5694 5695 5696 5697 5698 5699 5698 5698 5697 5697 5696
5638 5636 5634 5633 5630 5631 5632 5634 5636 5642 5646 5646 5645 5644 5646 5648 5650 5651 5651 5652 5653 5654 5656 5657 5658 5660 5661 5662 5664 5668 5670 5671 5673 5674 5676 5678 5681 5683 5685 5686 5688 5689 5690 5692 5691 5691 5691 5691 5691
5629 5628 5628 5628 5627 5627 5626 5632 5629 5641 5641 5638 5637 5639 5640 5640 5641 5642 5642 5643 5644 5645 5646 5647 5648 5649 5650 5652 5653 5656 5659 5660 5662 5664 5666 5667 5670 5672 5674 5676 5677 5679 5681 5683 5684 5685 5684 5683 5683
5620 5622 5627 5625 5622 5622 5619 5629 5631 5637 5633 5632 5633 5634 5632 5633 5633 5633 5634 5634 5635 5636 5637 5637 5637 5638 5639 5640 5642 5644 5646 5648 5650 5652 5654 5656 5658 5661 5663 5665 5667 5669 5670 5673 5674 5675 5675 5674 5674
5616 5621 5627 5623 5617 5614 5612 5631 5634 5629 5625 5625 5626 5627 5625 5625 5625 5626 5625 5625 5625 5626 5626 5626 5625 5626 5627 5628 5630 5632 5634 5635 5638 5639 5641 5643 5645 5648 5651 5653 5655 5657 5659 5661 5663 5663 5664 5664 5665
5617 5622 5622 5619 5612 5608 5607 5621 5628 5622 5618 5618 5620 5620 5618 5618 5618 5618 5617 5616 5616 5616 5616 5615 5614 5613 5614 5615 5616 5619 5620 5622 5624 5626 5629 5630 5632 5634 5637 5641 5643 5645 5647 5649 5651 5652 5654 5655 5656
5617 5615 5612 5611 5608 5600 5603 5614 5622 5620 5615 5614 5614 5613 5611 5610 5610 5609 5608 5607 5606 5605 5605 5604 5603 5602 5602 5603 5604 5605 5608 5610 5611 5613 5615 5617 5619 5621 5623 5627 5630 5632 5634 5636 5638 5640 5642 5644 5645
5602 5600 5602 5604 5598 5592 5602 5611 5618 5616 5611 5610 5609 5607 5604 5602 5601 5599 5598 5598 5596 5595 5594 5593 5592 5590 5589 5589 5590 5593 5595 5597 5598 5600 5601 5602 5604 5607 5609 5612 5616 5618 5621 5624 5626 5627 5629 5631 5633
5591 5591 5597 5598 5588 5586 5596 5605 5614 5612 5606 5603 5601 5600 5597 5595 5593 5590 5589 5588 5587 5585 5584 5582 5581 5578 5576 5576 5576 5578 5580 5583 5585 5585 5587 5587 5589 5591 5594 5597 5601 5604 5607 5610 5613 5614 5616 5619 5621
5587 5587 5589 5585 5583 5581 5578 5608 5613 5606 5599 5595 5593 5591 5589 5585 5584 5582 5581 5579 5577 5575 5573 5570 5569 5566 5564 5562 5562 5563 5565 5568 5571 5572 5573 5573 5574 5576 5578 5582 5586 5590 5593 5597 5601 5603 5604 5607 5610
5585 5580 5573 5570 5571 5581 5571 5590 5613 5602 5595 5590 5588 5586 5582 5578 5575 5572 5570 5568 5566 5563 5560 5558 5556 5554 5552 5549 5549 5550 5551 5553 5556 5557 5558 5559 5560 5562 5564 5567 5571 5575 5579 5583 5587 5591 5593 5595 5598
5572 5563 5560 5559 5559 5559 5565 5561 5600 5591 5589 5587 5583 5579 5574 5569 5565 5562 5558 5556 5554 5551 5548 5546 5544 5542 5540 5537 5536 5535 5537 5539 5540 5541 5543 5546 5547 5549 5550 5553 5556 5561 5566 5571 5574 5578 5580 5584 5588
5553 5552 5548 5545 5550 5552 5563 5559 5590 5593 5585 5581 5574 5569 5564 5560 5555 5552 5548 5544 5542 5539 5536 5534 5533 5532 5528 5525 5524 5523 5524 5525 5526 5528 5530 5532 5535 5536 5537 5539 5543 5548 5553 5558 5562 5565 5569 5573 5578
5546 5550 5555 5556 5553 5565 5550 5546 5575 5584 5573 5567 5562 5558 5553 5548 5545 5542 5539 5535 5532 5528 5524 5522 5522 5521 5518 5515 5514 5513 5512 5513 5514 5516 5517 5519 5522 5524 5526 5527 5531 5536 5541 5546 5549 5553 5558 5563 5568
5540 5542 5546 5550 5561 5564 5545 5550 5574 5571 5561 5554 5549 5545 5540 5537 5535 5531 5528 5524 5521 5518 5515 5512 5512 5511 5509 5506 5505 5504 5502 5502 5503 5504 5505 5508 5511 5514 5515 5517 5521 5525 5530 5534 5539 5543 5549 5554 5559
5531 5532 5529 5525 5518 5520 5550 5556 5561 5562 5554 5547 5542 5537 5532 5529 5525 5521 5517 5513 5510 5507 5505 5502 5502 5501 5499 5497 5496 5496 5495 5494 5494 5495 5496 5498 5501 5504 5507 5509 5512 5517 5521 5525 5530 5535 5541 5545 5551
5520 5520 5510 5511 5515 5531 5548 5550 5557 5555 5550 5544 5537 5532 5526 5520 5515 5512 5508 5503 5500 5497 5494 5492 5491 5490 5489 5488 5488 5488 5487 5486 5486 5487 5488 5491 5494 5497 5499 5502 5505 5510 5514 5518 5522 5528 5534 5538 5544
5502 5500 5505 5506 5503 5512 5532 5552 5554 5547 5541 5534 5528 5521 5515 5510 5505 5502 5498 5494 5490 5487 5485 5483 5481 5480 5479 5479 5478 5479 5478 5478 5479 5480 5482 5484 5487 5490 5493 5496 5500 5504 5509 5512 5517 5522 5528 5533 5539
5504 5505 5500 5496 5492 5486 5504 5535 5546 5537 5528 5520 5515 5511 5505 5499 5496 5492 5488 5484 5481 5478 5476 5474 5472 5471 5470 5469 5469 5470 5470 5471 5472 5474 5476 5478 5481 5485 5488 5491 5495 5499 5504 5508 5512 5518 5523 5529 5534